sat.trackr.live / text

‹ back to catalog

STARLINK-31253

NORAD 58830 · 2024-017E

PAYLOAD ACTIVE UNKNOWN

§ Identity

Operator
Country
US
Launch date
2024-01-24
Launch site
AFWTR
Launch vehicle
Mass (kg)
RCS (m²)

Purposes: comms

External: N2YO · Heavens-Above · Gunter

§ Orbital elements

Epoch: 2026-09-20T14:37:17.713056Z

Period
94.01 min
Inclination
53.1582°
Eccentricity
0.0000998
Mean motion
15.31705568 rev/d
Perigee alt
470.0 km
Apogee alt
471.4 km
Semi-major
6,848.9 km
B*
2.0896e-5
RAAN
17.2095°
Arg perigee
79.3523°
Mean anomaly
280.7591°
Rev number
14,992

§ Raw data

STARLINK-312531 58830U 24017E   26263.60923279  .00000284  00000+0  20896-4 0  99972 58830  53.1582  17.2095 0000998  79.3523 280.7591 15.31705568149927

JSON: /api/v1/satellites/58830 · /tle

For live sub-satellite position, see the globe view (requires WebGL).

§ Visibility from observer

Set your observer location to see the next 7 days of passes ≥ 10°. The values pass through the URL so the page stays shareable.

No JS? Fill the form by hand. The geolocation button needs JavaScript.